Погода в Холм-Жирковском

Россия / Смоленская область     55°30′36″N   33°29′22″E
темп.,
°C
ветер,
м/с
пор.,
м/с
влажн.,
%
обл.,
%
осадки,
мм/ч
давл.,
гПа
погр.,
м
21 июня, пн
пн2100:00+19ю3489100 0.0 102074
03:00+17ю228796 0.0 102021
06:00+18ююв2287100 0.0 102067
09:00+22юв2372100 0.0 1020346
12:00+27юв354911 0.0 10201166
15:00+28вюв3444100 0.0 10191349
18:00+28вюв355659 0.0 1018577
21:00+21юв35775 0.0 101969
22 июня, вт
вт2200:00+19юв37925 0.0 1019119
03:00+18юв239539 0.0 101961
06:00+19юв3693100 0.0 1020179
09:00+24ююв476896 0.0 1019508
12:00+28ююв4748100 0.0 10191136
15:00+30ю474399 0.0 10191710
18:00+29ю365580 0.0 1018444
21:00+22юв411785 0.0 1019228
23 июня, ср
ср2300:00+20ююв38924 0.0 1019155
03:00+19ююв35950 0.0 102094
06:00+20ююв24935 0.0 1020140
09:00+25ююв357120 0.0 1020471
12:00+29ююв46525 0.0 10201450
15:00+31ю45424 0.0 10192166
18:00+30юз35521 0.0 1018647
21:00+24юв36740 0.0 101980
24 июня, чт
чт2400:00+20ю358013 0.0 101976
03:00+19ю23906 0.0 102039
06:00+21ююв23879 0.0 101985
09:00+26ююв23685 0.0 1019396
12:00+30ю34525 0.0 10181281
15:00+31ююз34465 0.0 10181890
18:00+30ю46554 0.0 1016583
21:00+24з237546 0.0 101729
25 июня, пт
пт2500:00+18св3994100 0.3 1018212
03:00+17в23964 0.3 101747
06:00+20ю26914 0.0 1017151
09:00+25ю22684 0.0 1016397
12:00+29ююв225243 0.0 10161059
15:00+31ююв444683 0.0 10151611
18:00+20с81192100 9.8 1015274
21:00+20юв348533 10.6 101453